[[{"header":{"parameterUnit":"m.s-1","parameterCategory":1,"la1":30.2991,"la2":30.254,"lo1":-89.0895,"lo2":-89.0444,"dy":0.0017,"dx":0.0017,"nx":28,"ny":28,"refTime":"2024-12-10T03:00:00:Z","depth":0,"parameterNumber":2,"parameterNumberName":"U-component_of_WINDS"},"data":[0,0,0,0,0,0,0,0,0,0,0,0,0,0,0,0,0,0,0,0,0,0,0,0,0,0,0,0,0,0,0,0,0,0,0,0,0,0,0,0,0,0,0,0,0,0,0,0,0,0,0,0,0,0,0,0,0,0,4.2352,4.2352,0,4.2272,4.2271,4.227,4.2175,4.2173,4.2172,4.217,4.2085,4.2084,4.2083,0,0,0,0,0,0,0,0,0,0,0,0,0,4.2423,4.2422,4.2352,4.2351,4.235,4.2272,4.2271,4.227,4.2175,4.2173,4.2171,4.217,4.2085,4.2084,4.2083,0,0,0,0,0,0,0,0,0,0,0,0,0,4.2372,4.2422,4.2353,4.2294,4.2288,4.2272,4.2271,4.2269,4.2175,4.2173,4.2171,4.2169,4.2085,4.2084,4.2083,4.2117,0,0,4.2078,4.2078,0,0,0,0,0,0,0,0,4.2375,4.237,4.2303,4.2298,4.2291,4.2231,4.2264,4.2218,4.2176,4.2218,4.217,4.2168,4.2135,4.2129,4.2119,4.2113,4.211,4.2078,4.2077,4.2077,4.2076,0,0,0,0,0,0,0,4.2379,4.2373,4.232,4.2303,4.2295,4.2271,4.2261,4.2255,4.2189,4.2214,4.2207,4.2199,4.2131,4.212,4.2116,4.2108,4.2078,4.2077,4.2076,4.2076,4.213,4.2132,0,0,0,0,0,0,4.2392,4.2376,4.2323,4.2318,4.2329,4.2272,4.2261,4.2252,4.2189,4.2178,4.2201,4.2195,4.2124,4.2118,4.2113,4.215,4.2077,4.2075,4.2075,4.2128,4.213,4.2133,0,0,0,0,0,0,4.2394,4.2388,4.2326,4.2345,4.2336,4.2273,4.2264,4.2252,4.2241,4.2179,4.2167,4.2202,4.2122,4.2115,4.2118,4.2146,4.2075,4.2073,4.2125,4.2128,4.2132,4.2226,0,0,0,0,0,0,4.2396,4.2389,4.2402,4.2346,4.2335,4.2333,4.2266,4.2252,4.224,4.2231,4.2177,4.2166,4.212,4.212,4.2116,4.2143,4.2072,4.2122,4.2126,4.213,4.222,4.2232,4.2242,0,0,0,0,0,4.2399,4.243,4.2403,4.2397,4.235,4.2335,4.2328,4.2275,4.2242,4.2254,4.2215,4.2168,4.2144,4.2121,4.2116,4.2143,4.212,4.2125,4.213,4.2215,4.223,4.2242,0,0,0,0,0,0,4.2489,4.2422,4.2391,4.2405,4.2377,4.2319,4.2332,4.2292,4.2271,4.2264,4.2198,4.2187,4.2198,4.217,4.2146,4.2174,4.2125,4.213,4.2191,4.2205,4.2216,4.2222,4.2071,0,0,0,0,0,4.2511,4.2505,4.2446,4.2465,4.2453,4.2396,4.2387,4.2349,4.2316,4.2303,4.2264,4.2233,4.2219,4.221,4.2194,4.2216,4.2203,4.2232,4.2243,4.2253,4.2257,4.2268,4.2281,4.215,4.215,4.2149,0,0,4.2555,4.2518,4.2518,4.2482,4.2455,4.2451,4.2386,4.2383,4.2379,4.2302,4.2303,4.2274,4.2235,4.2249,4.2253,4.2226,4.2291,4.2259,4.2268,4.2266,4.2275,4.2287,4.2298,4.2153,4.2152,4.2152,0,0,4.2633,4.2605,4.2617,4.2593,4.2554,4.2517,4.252,4.2469,4.2447,4.2448,4.2391,4.2385,4.2361,4.2337,4.2321,4.2395,4.2351,4.2391,4.245,4.2461,4.2472,4.2481,4.2507,4.2517,4.2396,4.2396,4.2396,0,4.2692,4.2684,4.2629,4.2631,4.2617,4.255,4.2563,4.2541,4.2499,4.2491,4.2463,4.2434,4.2403,4.2411,4.2429,4.2419,4.2421,4.2396,4.2475,4.2483,4.2491,4.2515,4.2525,4.2401,4.2401,4.24,4.24,0,4.2759,4.2755,4.277,4.2733,4.2721,4.2728,4.2674,4.2669,4.2633,4.2599,4.2601,4.2563,4.2538,4.2537,4.2501,4.254,4.2525,4.2487,4.2436,4.2509,4.2531,4.254,4.2409,4.2407,4.2405,4.2404,0,0,4.2889,4.2824,4.283,4.2814,4.2768,4.2763,4.2768,4.2745,4.2743,4.2717,4.2719,4.2703,4.2668,4.2651,4.2612,4.2622,4.2684,4.2583,4.2581,4.2603,4.2726,4.2755,4.2767,4.2656,4.2657,4.2659,4.273,0,4.2958,4.2964,4.2916,4.2934,4.293,4.2868,4.2872,4.2845,4.2814,4.2805,4.277,4.276,4.2715,4.2704,4.2712,4.2675,4.2708,4.2669,4.2657,4.2657,4.2668,4.2778,4.2807,4.2876,4.2738,4.2739,4.274,0,4.3039,4.302,4.3039,4.2994,4.2991,4.2996,4.2972,4.2965,4.2934,4.291,4.2893,4.285,4.2852,4.2805,4.2807,4.2783,4.2775,4.2757,4.2758,4.2754,4.2702,4.2776,4.2896,4.2907,4.2753,4.2752,4.2751,0,4.3132,4.3111,4.312,4.3107,4.3056,4.3061,4.304,4.3006,4.2997,4.2976,4.297,4.295,4.2939,4.2924,4.2877,4.2847,4.2885,4.2834,4.2866,4.2867,4.2875,4.2875,4.2995,4.2872,4.2872,4.2872,4.2871,0,4.3214,4.3228,4.3161,4.3166,4.318,4.3126,4.3142,4.3114,4.3086,4.3084,4.303,4.303,4.2967,4.2961,4.2924,4.2932,4.2927,4.2908,4.2898,4.2913,4.2915,4.2906,4.29,4.2874,4.2874,4.2873,4.2873,0,4.3319,4.3275,4.3281,4.3233,4.3221,4.3234,4.3193,4.3196,4.3163,4.3162,4.3159,4.3107,4.3097,4.3049,4.3026,4.3001,4.3022,4.3002,4.3033,4.3027,4.3061,4.3058,4.3178,4.3192,4.3061,4.3063,4.3064,0,4.3374,4.3383,4.3338,4.3334,4.3316,4.331,4.33,4.3248,4.3241,4.3208,4.3215,4.3201,4.3187,4.3173,4.3133,4.3116,4.3095,4.3139,4.3092,4.3108,4.3096,4.3096,4.3097,4.3148,4.315,4.3152,4.3153,0,4.3476,4.3454,4.3443,4.3426,4.3417,4.3401,4.338,4.338,4.3323,4.3318,4.3307,4.3297,4.3276,4.3262,4.324,4.3217,4.3176,4.3168,4.3175,4.3189,4.3206,4.3198,4.306,4.3165,4.3164,4.3163,4.3162,4.3162,4.3556,4.3563,4.3532,4.3523,4.3503,4.3487,4.3488,4.3456,4.3447,4.3427,4.3397,4.3392,4.3362,4.3327,4.3309,4.3304,4.328,4.3289,4.3291,4.3294,4.3302,4.3209,4.3299,4.3299,4.3299,4.3298,4.3298,0,4.3655,4.3633,4.3626,4.3601,4.3594,4.3558,4.3535,4.3531,4.3527,4.3504,4.3492,4.3481,4.3469,4.343,4.3414,4.3417,4.3398,4.3415,4.3413,4.3409,4.3324,4.332,4.3431,4.3431,4.3431,4.3431,4.3431,4.3431,4.3705,4.3715,4.369,4.369,4.3668,4.3663,4.3653,4.3638,4.3619,4.361,4.3601,4.3576,4.3546,4.3528,4.3516,4.3505,4.3501,4.3524,4.3507,4.3428,4.3415,4.3403,4.3399,4.3524,4.3524,4.3592,4.3593,4.3593]},{"header":{"parameterUnit":"m.s-1","parameterCategory":1,"la1":30.2991,"la2":30.254,"lo1":-89.0895,"lo2":-89.0444,"dy":0.0017,"dx":0.0017,"nx":28,"ny":28,"refTime":"2024-12-10T03:00:00:Z","depth":0,"parameterNumber":3,"parameterNumberName":"V-component_of_WINDS"},"data":[0,0,0,0,0,0,0,0,0,0,0,0,0,0,0,0,0,0,0,0,0,0,0,0,0,0,0,0,0,0,0,0,0,0,0,0,0,0,0,0,0,0,0,0,0,0,0,0,0,0,0,0,0,0,0,0,0,0,4.1055,4.1057,0,4.1257,4.126,4.1262,4.1354,4.1354,4.1354,4.1353,4.1559,4.1565,4.157,0,0,0,0,0,0,0,0,0,0,0,0,0,4.0751,4.0756,4.1055,4.1057,4.106,4.1257,4.126,4.1263,4.1354,4.1354,4.1354,4.1353,4.1557,4.1564,4.1571,0,0,0,0,0,0,0,0,0,0,0,0,0,4.0911,4.0757,4.1054,4.1129,4.1138,4.1256,4.126,4.1263,4.1354,4.1354,4.1353,4.1353,4.1555,4.1563,4.1572,4.163,0,0,4.1598,4.1602,0,0,0,0,0,0,0,0,4.0901,4.0922,4.1116,4.1124,4.1134,4.128,4.1228,4.1386,4.1354,4.1272,4.1353,4.1353,4.1467,4.1482,4.1521,4.164,4.1649,4.1599,4.1604,4.1607,4.161,0,0,0,0,0,0,0,4.089,4.0914,4.1135,4.1118,4.113,4.1154,4.1176,4.1259,4.1368,4.1279,4.1286,4.1309,4.1472,4.1512,4.1526,4.1652,4.1598,4.1606,4.1611,4.1614,4.1837,4.1838,0,0,0,0,0,0,4.0867,4.0904,4.1128,4.1141,4.1015,4.116,4.1185,4.1234,4.1368,4.1388,4.1309,4.1313,4.1498,4.1516,4.1534,4.1617,4.1607,4.1615,4.162,4.1836,4.1837,4.1838,0,0,0,0,0,0,4.086,4.0886,4.112,4.1025,4.1056,4.1165,4.1219,4.1238,4.1279,4.1391,4.1411,4.1331,4.1499,4.1522,4.1608,4.1625,4.1619,4.1627,4.1835,4.1836,4.1837,4.1778,0,0,0,0,0,0,4.0851,4.0883,4.0905,4.1024,4.1061,4.1189,4.122,4.1242,4.1293,4.13,4.1416,4.1435,4.15,4.1594,4.1616,4.1636,4.1634,4.1834,4.1836,4.1837,4.1779,4.1777,4.1776,0,0,0,0,0,4.0839,4.0878,4.0906,4.0932,4.1091,4.119,4.1211,4.1286,4.1294,4.1319,4.1392,4.1431,4.1619,4.1602,4.1627,4.165,4.1833,4.1835,4.1837,4.178,4.1778,4.1776,0,0,0,0,0,0,4.0756,4.0895,4.0927,4.1005,4.1086,4.1205,4.1238,4.128,4.1358,4.1361,4.145,4.1476,4.1554,4.1611,4.159,4.1718,4.173,4.1737,4.1678,4.1677,4.1675,4.1661,4.1641,0,0,0,0,0,4.0747,4.0816,4.0933,4.0992,4.103,4.1127,4.1173,4.1224,4.131,4.1344,4.1423,4.1505,4.1584,4.1633,4.1711,4.1788,4.1817,4.1817,4.1815,4.1813,4.1818,4.1869,4.1872,4.1844,4.1844,4.1844,0,0,4.0729,4.0813,4.0851,4.0977,4.1045,4.1116,4.1155,4.1226,4.1281,4.1355,4.1442,4.1503,4.1601,4.1684,4.1725,4.1734,4.1833,4.1815,4.1813,4.182,4.1871,4.1874,4.1876,4.1845,4.1845,4.1845,0,0,4.0733,4.0801,4.0861,4.0929,4.1033,4.1098,4.1112,4.1227,4.1271,4.136,4.142,4.1486,4.1617,4.1686,4.1739,4.1775,4.1816,4.1798,4.1789,4.1837,4.184,4.1842,4.186,4.1864,4.1802,4.1802,4.1802,0,4.0697,4.0805,4.0885,4.0956,4.1012,4.1085,4.1148,4.121,4.1333,4.137,4.1379,4.155,4.162,4.1724,4.1733,4.1772,4.1794,4.1785,4.1833,4.1836,4.184,4.1857,4.1863,4.18,4.18,4.18,4.18,0,4.0759,4.0833,4.0869,4.0989,4.1049,4.1114,4.1206,4.1258,4.1305,4.137,4.1462,4.155,4.165,4.1678,4.1723,4.1789,4.1793,4.1815,4.183,4.1838,4.1857,4.1864,4.1796,4.1797,4.1798,4.1798,0,0,4.0713,4.0881,4.0893,4.0951,4.1073,4.1133,4.1204,4.1303,4.1348,4.1431,4.1495,4.1608,4.1632,4.1691,4.1746,4.1788,4.1817,4.1807,4.1811,4.1809,4.1902,4.1885,4.1892,4.1845,4.1847,4.1848,4.1895,0,4.0736,4.0867,4.0944,4.1044,4.1117,4.1191,4.1253,4.1336,4.14,4.1472,4.1542,4.1622,4.1646,4.1683,4.1728,4.1804,4.1838,4.1801,4.1908,4.1911,4.1884,4.1901,4.1883,4.1922,4.1902,4.1903,4.1904,0,4.078,4.0866,4.0974,4.1094,4.1127,4.1182,4.1283,4.135,4.1447,4.1491,4.156,4.1616,4.1696,4.1704,4.1818,4.1792,4.1841,4.1885,4.1889,4.1903,4.1909,4.1919,4.1936,4.1943,4.1915,4.1914,4.1913,0,4.0741,4.0883,4.0968,4.1015,4.1155,4.1194,4.1254,4.1351,4.1408,4.1495,4.1534,4.1629,4.1682,4.1755,4.1836,4.1833,4.1944,4.1957,4.1985,4.1983,4.2006,4.2004,4.2035,4.2032,4.2032,4.2032,4.2032,0,4.0761,4.0825,4.0954,4.1006,4.1082,4.1171,4.1243,4.131,4.1397,4.1465,4.1533,4.1595,4.1697,4.1773,4.1837,4.1925,4.1947,4.1987,4.2004,4.1983,4.1978,4.2017,4.2017,4.2034,4.2033,4.2033,4.2033,0,4.073,4.0818,4.0916,4.1043,4.1077,4.1128,4.1237,4.1293,4.1361,4.1447,4.1472,4.1581,4.1674,4.1763,4.1886,4.193,4.2019,4.2039,4.1987,4.1997,4.2022,4.2019,4.2081,4.2095,4.2079,4.2079,4.2079,0,4.0737,4.0789,4.0924,4.0975,4.1035,4.1116,4.1176,4.1267,4.1327,4.1445,4.1486,4.1586,4.167,4.1817,4.1907,4.2004,4.2028,4.2043,4.2043,4.2022,4.2033,4.203,4.2038,4.2042,4.2042,4.2041,4.2041,0,4.0743,4.0786,4.087,4.0971,4.1041,4.1124,4.1209,4.1247,4.1355,4.1419,4.1517,4.1583,4.1712,4.1811,4.192,4.1983,4.2032,4.2041,4.2053,4.2033,4.2003,4.2024,4.1986,4.2039,4.2039,4.2039,4.2039,4.204,4.0735,4.0787,4.0891,4.0984,4.1059,4.1139,4.1198,4.1277,4.136,4.1474,4.1523,4.1623,4.1724,4.1875,4.1939,4.202,4.203,4.2047,4.2052,4.2055,4.2053,4.1988,4.2039,4.2039,4.2039,4.204,4.204,0,4.0748,4.082,4.0904,4.1024,4.1098,4.1138,4.1237,4.1296,4.1384,4.1475,4.1558,4.1674,4.1771,4.1871,4.1975,4.2021,4.2046,4.2045,4.2044,4.2059,4.2036,4.2016,4.2024,4.2024,4.2024,4.2024,4.2024,4.2024,4.0763,4.0855,4.0911,4.1043,4.1115,4.1215,4.1268,4.1344,4.1417,4.1544,4.1626,4.1691,4.1787,4.19,4.1992,4.2019,4.2056,4.205,4.2083,4.2059,4.206,4.206,4.2043,4.2056,4.2056,4.2101,4.2101,4.2101]}]]